This is the latest recevied weather packets stored in our database for station/object DL5DI-H. If no packets are shown the sender has not sent any weather packets the latest 10 day(s).
| Time | Temp. | Humidity | Pressure | Rain* | Wind** | Luminosity | Snow |
|---|---|---|---|---|---|---|---|
| 1777636805 | 21.11° C | 29% | 1026.5 hPa | 0 mm | - | - | - |
| 1777636201 | 21.11° C | 30% | 1026.6 hPa | 0 mm | - | - | - |
| 1777635601 | 21.11° C | 30% | 1026.6 hPa | 0 mm | - | - | - |
| 1777635006 | 20.56° C | 31% | 1026.7 hPa | 0 mm | - | - | - |
| 1777634401 | 20° C | 31% | 1026.7 hPa | 0 mm | - | - | - |
| 1777633805 | 20° C | 31% | 1026.7 hPa | 0 mm | - | - | - |
| 1777633201 | 19.44° C | 31% | 1027.1 hPa | 0 mm | - | - | - |
| 1777632601 | 18.89° C | 32% | 1027.2 hPa | 0 mm | - | - | - |
| 1777632001 | 18.89° C | 32% | 1027.2 hPa | 0 mm | - | - | - |
| 1777631405 | 18.33° C | 32% | 1027.3 hPa | 0 mm | - | - | - |
| 1777630801 | 17.78° C | 33% | 1027.5 hPa | 0 mm | - | - | - |
| 1777630204 | 17.78° C | 33% | 1027.5 hPa | 0 mm | - | - | - |
| 1777629605 | 17.22° C | 33% | 1027.5 hPa | 0 mm | - | - | - |
| 1777629005 | 16.67° C | 33% | 1027.7 hPa | 0 mm | - | - | - |
| 1777628401 | 16.67° C | 33% | 1027.7 hPa | 0 mm | - | - | - |
| 1777627805 | 16.11° C | 34% | 1027.7 hPa | 0 mm | - | - | - |
| 1777627201 | 15.56° C | 35% | 1027.8 hPa | 0 mm | - | - | - |
| 1777626605 | 15.56° C | 35% | 1027.8 hPa | 0 mm | - | - | - |
| 1777626005 | 15° C | 38% | 1027.9 hPa | 0 mm | - | - | - |
| 1777625401 | 13.89° C | 42% | 1028 hPa | 0 mm | - | - | - |
| 1777624805 | 13.89° C | 42% | 1028 hPa | 0 mm | - | - | - |
| 1777624201 | 13.33° C | 46% | 1028.1 hPa | 0 mm | - | - | - |
| 1777623601 | 12.22° C | 48% | 1028.2 hPa | 0 mm | - | - | - |
| 1777623004 | 12.22° C | 48% | 1028.2 hPa | 0 mm | - | - | - |
| 1777622401 | 11.67° C | 49% | 1028.1 hPa | 0 mm | - | - | - |
* Rain latest hour (hover to see other rain measurements)
** Current wind speed in m/s (hover to see current wind gust speed)